Hourly Weather Izmail

Today, 13 July, Monday

Time Temperature Precipitation Wind Pressure Humidity
00:00 +17°C° 0.2 mm 9 mps 759 mmHg 75%
01:00 +16°C° 0.2 mm 9 mps 759 mmHg 78%
02:00 +15°C° 0 mm 9 mps 759 mmHg 80%
03:00 +15°C° 0.3 mm 9 mps 759 mmHg 82%
04:00 +15°C° 0.3 mm 9 mps 759 mmHg 83%
05:00 +13°C° 0.3 mm 9 mps 759 mmHg 84%
06:00 +15°C° 0.5 mm 9 mps 759 mmHg 83%
07:00 +15°C° 0.5 mm 9 mps 759 mmHg 82%
08:00 +15°C° 0 mm 8 mps 760 mmHg 80%
09:00 +16°C° 0 mm 8 mps 759 mmHg 74%
10:00 +17°C° 0 mm 8 mps 759 mmHg 68%
11:00 +18°C° 0 mm 8 mps 759 mmHg 62%
12:00 +21°C° 0 mm 8 mps 759 mmHg 56%
13:00 +23°C° 0 mm 8 mps 759 mmHg 50%
14:00 +24°C° 0 mm 8 mps 759 mmHg 44%
15:00 +24°C° 0 mm 8 mps 759 mmHg 44%
16:00 +24°C° 0 mm 8 mps 758 mmHg 44%
17:00 +23°C° 0 mm 8 mps 758 mmHg 44%
18:00 +22°C° 0 mm 7 mps 758 mmHg 48%
19:00 +21°C° 0 mm 6 mps 758 mmHg 51%
20:00 +20°C° 0 mm 5 mps 759 mmHg 54%
21:00 +19°C° 0 mm 5 mps 759 mmHg 57%
22:00 +19°C° 0 mm 5 mps 759 mmHg 59%
23:00 +17°C° 0 mm 5 mps 759 mmHg 61%

Tomorrow, 14 July, Tuesday

Time Temperature Precipitation Wind Pressure Humidity
00:00 +16°C° 0 mm 5 mps 760 mmHg 64%
01:00 +16°C° 0 mm 5 mps 760 mmHg 66%
02:00 +15°C° 0 mm 5 mps 760 mmHg 69%
03:00 +14°C° 0 mm 5 mps 760 mmHg 71%
04:00 +14°C° 0 mm 5 mps 760 mmHg 74%
05:00 +13°C° 0 mm 4 mps 760 mmHg 76%
06:00 +15°C° 0 mm 5 mps 760 mmHg 69%
07:00 +17°C° 0 mm 5 mps 760 mmHg 61%
08:00 +20°C° 0 mm 6 mps 760 mmHg 54%
09:00 +21°C° 0 mm 6 mps 760 mmHg 49%
10:00 +22°C° 0 mm 6 mps 760 mmHg 44%
11:00 +24°C° 0 mm 6 mps 760 mmHg 39%
12:00 +24°C° 0 mm 6 mps 760 mmHg 36%
13:00 +26°C° 0 mm 6 mps 759 mmHg 34%
14:00 +27°C° 0 mm 5 mps 759 mmHg 32%
15:00 +26°C° 0 mm 5 mps 759 mmHg 33%
16:00 +26°C° 0 mm 5 mps 759 mmHg 35%
17:00 +26°C° 0 mm 5 mps 759 mmHg 36%
18:00 +23°C° 0 mm 4 mps 759 mmHg 41%
19:00 +21°C° 0 mm 3 mps 759 mmHg 46%
20:00 +20°C° 0 mm 2 mps 759 mmHg 51%
21:00 +19°C° 0 mm 2 mps 759 mmHg 54%
22:00 +18°C° 0 mm 2 mps 759 mmHg 57%
23:00 +17°C° 0 mm 2 mps 760 mmHg 60%

Day after tomorrow, 15 July, Wednesday

Time Temperature Precipitation Wind Pressure Humidity
00:00 +17°C° 0 mm 2 mps 760 mmHg 62%
01:00 +18°C° 0 mm 1 mps 760 mmHg 63%
02:00 +16°C° 0 mm 1 mps 760 mmHg 65%
03:00 +16°C° 0 mm 1 mps 760 mmHg 66%
04:00 +16°C° 0 mm 1 mps 760 mmHg 67%
05:00 +16°C° 0 mm 1 mps 760 mmHg 68%
06:00 +19°C° 0 mm 1 mps 760 mmHg 61%
07:00 +21°C° 0 mm 1 mps 760 mmHg 54%
08:00 +21°C° 0 mm 0 mps 760 mmHg 48%
09:00 +25°C° 0 mm 1 mps 760 mmHg 44%
10:00 +26°C° 0 mm 1 mps 760 mmHg 40%
11:00 +27°C° 0 mm 1 mps 760 mmHg 37%
12:00 +28°C° 0 mm 1 mps 760 mmHg 35%
13:00 +28°C° 0 mm 2 mps 760 mmHg 33%
14:00 +29°C° 0 mm 2 mps 759 mmHg 31%
15:00 +29°C° 0 mm 2 mps 759 mmHg 32%
16:00 +28°C° 0 mm 2 mps 759 mmHg 33%
17:00 +28°C° 0 mm 2 mps 758 mmHg 34%
18:00 +26°C° 0 mm 3 mps 759 mmHg 41%
19:00 +24°C° 0 mm 3 mps 759 mmHg 48%
20:00 +21°C° 0 mm 4 mps 759 mmHg 56%
21:00 +20°C° 0 mm 3 mps 759 mmHg 58%
22:00 +20°C° 0 mm 3 mps 759 mmHg 60%
23:00 +19°C° 0 mm 2 mps 759 mmHg 63%

16 July, Thursday

Time Temperature Precipitation Wind Pressure Humidity
00:00 +18°C° 0 mm 2 mps 759 mmHg 64%
01:00 +18°C° 0 mm 2 mps 759 mmHg 66%
02:00 +19°C° 0 mm 1 mps 759 mmHg 67%
03:00 +19°C° 0 mm 1 mps 759 mmHg 68%
04:00 +19°C° 0 mm 1 mps 758 mmHg 69%
05:00 +18°C° 0 mm 1 mps 758 mmHg 70%
06:00 +21°C° 0 mm 1 mps 758 mmHg 62%
07:00 +23°C° 0 mm 1 mps 758 mmHg 55%
08:00 +23°C° 0 mm 0 mps 758 mmHg 47%
09:00 +26°C° 0 mm 1 mps 758 mmHg 43%
10:00 +27°C° 0 mm 2 mps 758 mmHg 39%
11:00 +29°C° 0 mm 2 mps 758 mmHg 35%
12:00 +29°C° 0 mm 3 mps 758 mmHg 34%
13:00 +29°C° 0 mm 3 mps 757 mmHg 34%
14:00 +29°C° 0 mm 3 mps 757 mmHg 33%
15:00 +29°C° 0 mm 3 mps 757 mmHg 34%
16:00 +29°C° 0 mm 4 mps 757 mmHg 35%
17:00 +28°C° 0 mm 4 mps 756 mmHg 36%
18:00 +26°C° 0 mm 3 mps 756 mmHg 43%
19:00 +24°C° 0 mm 3 mps 756 mmHg 50%
20:00 +21°C° 0 mm 3 mps 757 mmHg 57%
21:00 +21°C° 0 mm 2 mps 757 mmHg 59%
22:00 +20°C° 0 mm 2 mps 757 mmHg 62%
23:00 +20°C° 0 mm 1 mps 757 mmHg 65%

17 July, Friday

Time Temperature Precipitation Wind Pressure Humidity
00:00 +20°C° 0 mm 1 mps 757 mmHg 67%
01:00 +19°C° 0 mm 1 mps 757 mmHg 69%
02:00 +17°C° 0 mm 0 mps 757 mmHg 70%
03:00 +18°C° 0 mm 1 mps 756 mmHg 71%
04:00 +18°C° 0 mm 1 mps 756 mmHg 71%
05:00 +18°C° 0 mm 1 mps 756 mmHg 71%
06:00 +21°C° 0 mm 1 mps 757 mmHg 63%
07:00 +23°C° 0 mm 1 mps 757 mmHg 54%
08:00 +25°C° 0 mm 1 mps 757 mmHg 45%
09:00 +27°C° 0 mm 1 mps 757 mmHg 40%
10:00 +29°C° 0 mm 2 mps 757 mmHg 34%
11:00 +31°C° 0 mm 2 mps 757 mmHg 29%
12:00 +31°C° 0 mm 2 mps 757 mmHg 28%
13:00 +33°C° 0 mm 3 mps 757 mmHg 28%
14:00 +33°C° 0 mm 3 mps 757 mmHg 27%
15:00 +33°C° 0 mm 4 mps 756 mmHg 29%
16:00 +32°C° 0 mm 4 mps 756 mmHg 30%
17:00 +32°C° 0 mm 4 mps 756 mmHg 32%
18:00 +29°C° 0 mm 4 mps 756 mmHg 39%
19:00 +27°C° 0 mm 3 mps 756 mmHg 46%
20:00 +24°C° 0 mm 3 mps 757 mmHg 52%
21:00 +23°C° 0 mm 2 mps 757 mmHg 56%
22:00 +22°C° 0 mm 1 mps 757 mmHg 60%
23:00 +21°C° 0 mm 1 mps 757 mmHg 64%

18 July, Saturday

Time Temperature Precipitation Wind Pressure Humidity
00:00 +21°C° 0 mm 1 mps 757 mmHg 65%
01:00 +20°C° 0 mm 1 mps 757 mmHg 66%
02:00 +18°C° 0 mm 0 mps 757 mmHg 67%
03:00 +20°C° 0 mm 1 mps 757 mmHg 66%
04:00 +20°C° 0 mm 1 mps 757 mmHg 64%
05:00 +19°C° 0 mm 2 mps 757 mmHg 62%
06:00 +23°C° 0 mm 2 mps 757 mmHg 56%
07:00 +25°C° 0 mm 2 mps 757 mmHg 49%
08:00 +28°C° 0 mm 3 mps 757 mmHg 43%
09:00 +29°C° 0 mm 4 mps 757 mmHg 39%
10:00 +32°C° 0 mm 5 mps 757 mmHg 35%
11:00 +33°C° 0 mm 6 mps 757 mmHg 32%
12:00 +33°C° 0 mm 6 mps 757 mmHg 32%
13:00 +33°C° 0 mm 6 mps 756 mmHg 32%
14:00 +33°C° 0 mm 7 mps 756 mmHg 32%
15:00 +33°C° 0 mm 6 mps 756 mmHg 33%
16:00 +33°C° 0 mm 6 mps 756 mmHg 34%
17:00 +32°C° 0 mm 6 mps 755 mmHg 35%
18:00 +29°C° 0 mm 5 mps 755 mmHg 41%
19:00 +27°C° 0 mm 4 mps 755 mmHg 47%
20:00 +25°C° 0 mm 3 mps 755 mmHg 53%
21:00 +25°C° 0 mm 3 mps 755 mmHg 55%
22:00 +24°C° 0 mm 3 mps 755 mmHg 57%
23:00 +23°C° 0 mm 2 mps 756 mmHg 58%
Show more